Location: Cicognara
(44.9500°N, 10.4667°E)
Time: 15:21:08
(UTC+00:00)

Thor Agena Rocket - Pass Details

Date: 20 June 2021
Orbit: 759 x 808 km, 99.0° (Epoch: 02 August)

Event Time Altitude Azimuth Distance (km) Brightness Sun altitude
Rises 23:00:57 0° 17° (NNE) 3,317 8.0 -21.5°
Reaches altitude 10° 23:03:21 10° 22° (NNE) 2,376 7.0 -21.5°
Maximum altitude 23:08:32 60° 102° (ESE) 905 3.7 -21.6°
Enters shadow 23:09:48 46° 153° (SSE) 1,049 3.8 -21.6°
